www.pogodaiklimat.ru

ПОГОДА в Небраска-Сити, NE

  • Прогноз погоды в Небраска-Сити
  • Монитор погоды в Небраска-Сити
  • Климат в Небраска-Сити

АРХИВ ПОГОДЫ в Небраска-Сити

Время (UTC), дата Ветер
(напр.,м/с)
 
Видим.   Явления Облачность Т
(С)
Тd
(С)
f
(%)
Тe
(С)
Тes
(С)
Комфортность

P
(гПа)

Po
(гПа)
Тmin
(С)
Tmax
(С)
R
(мм)
SD
(см)
05:35 26.03 В  16 км    10/0 2550 м
[средняя] 
+5.2  +3.0  86  +2  +2      985.2         
05:55 26.03   16 км    10/0 2250 м
[средняя] 
+5.2  +2.8  84  +4  +4      985.2         
06:15 26.03 ЮВ  16 км    10/0 2250 м
[средняя] 
+5.2  +3.0  86  +3  +3      985.2         
06:35 26.03   16 км    10/0 2250 м
[средняя] 
+5.0  +3.0  87  +4  +4      985.2         
06:55 26.03   16 км    8/5 1950 м
[средняя] 
+4.7  +2.6  86  +4  +4      985.5         
07:15 26.03   16 км    5/0 3600 м
[средняя] 
+4.7  +2.7  87  +4  +4      985.2         
07:35 26.03 ЮВ  16 км    8/0 2100 м
[средняя] 
+4.8  +2.6  86  +3  +3      985.2         
07:55 26.03 ЮВ  11 км    10/0 2100 м
[средняя] 
+4.2  +2.4  88  +2  +2      985.2         
08:15 26.03   11 км    5/0 2100 м
[средняя] 
+3.7  +2.1  89  +3  +3      985.2         
08:35 26.03   11 км    8/0 2100 м
[средняя] 
+4.1  +2.6  90  +3  +3      985.2         
08:55 26.03 ЮВ  11 км    10/0 2100 м
[средняя] 
+4.1  +2.7  91  +2  +2      985.2         
09:15 26.03 ЮВ  11 км    10/8 1800 м
[средняя] 
+4.5  +2.8  89  +2  +2      984.9         
09:35 26.03 Ю  11 км    10/10 1800 м  +4.3  +2.9  91  +2  +2      985.2         
09:55 26.03 ЮВ  11 км    10/10 1800 м  +4.3  +3.0  91  +2  +2      985.2         
10:15 26.03   11 км    10/10 1800 м  +4.5  +3.0  90  +3  +3      985.5         
10:35 26.03 ЮВ  11 км    10/10 1800 м  +4.5  +2.8  89  +1  +1      985.2         
10:55 26.03   11 км    10/10 1500 м  +4.5  +2.7  88  +3  +3      985.9  +3.6  +5.3     
11:15 26.03 ЮВ  11 км    10/10 1500 м  +4.5  +2.5  87  +1  +1      985.9         
11:35 26.03 ЮВ  11 км    10/8 1500 м
[средняя] 
+4.5  +2.5  87  +2  +2      985.9         
11:55 26.03 ЮВ  11 км    10/0 2250 м
[средняя] 
+4.7  +2.6  86  +1  +1      986.2         
12:15 26.03 ЮВ  11 км    10/0 2250 м
[средняя] 
+5.0  +3.0  87  +3  +3      986.2         
12:35 26.03 ЮВ  11 км    10/8 1950 м
[средняя] 
+5.2  +2.8  84  +1  +1      986.2         
12:55 26.03 ЮВ  11 км    10/10 1110 м  +5.3  +2.8  84  +2  +2      986.2         
13:15 26.03 Ю  11 км    10/10 1110 м  +5.5  +2.9  83  +2  +2      986.2         
13:35 26.03 ЮВ  11 км    10/10 1380 м  +5.5  +3.1  85  +2  +2      986.2         
13:55 26.03 ЮВ  8 км  дымка  10/10 1440 м  +5.5  +3.1  85  +4  +4      986.2         
14:15 26.03 ЮВ  6 км  морось  10/10 1440 м  +5.6  +3.5  86  +4  +4      986.2         
14:35 26.03 Ю  8 км  дымка  10/10 1380 м  +5.9  +4.0  88  +2  +2      986.2         
14:55 26.03 Ю  11 км    10/10 1380 м  +6.5  +4.4  86  +3  +3      986.2         
15:15 26.03 Ю  16 км    10/10 1440 м  +7.1  +4.0  81  +4  +4      986.2         
15:35 26.03 Ю  16 км    10/10 1500 м  +7.9  +4.2  77  +4  +4      986.2         
15:55 26.03 Ю  16 км    10/10 1500 м  +8.6  +4.1  73  +5  +5      985.9         
16:15 26.03 Ю  16 км    10/10 1500 м  +10.0  +3.9  66  +6  +6      985.9         
16:35 26.03 Ю  16 км    8/8 1500 м  +11.3  +3.5  59  +9  +9      985.2         
16:55 26.03 Ю  16 км    8/8 1500 м  +12.7  +3.4  53  +10  +11      984.9  +4.5  +12.7     
17:15 26.03 Ю  6
{7} 
16 км    8/8 1500 м  +12.7  +3.3  53  +10  +11      984.6         
17:35 26.03 ЮВ  16 км    5/5 1500 м  +13.3  +3.7  52  +12  +16      983.9         
17:55 26.03 Ю  7
{9} 
16 км    ясно  +14.3  +2.9  46  +12  +14      983.9         
18:15 26.03 Ю  8
{9} 
16 км    8/5 1440 м
[средняя] 
+14.4  +3.4  48  +12  +13      983.6         
18:35 26.03 ЮВ  5
{9} 
16 км    10/0 2100 м
[средняя] 
+14.7  +3.5  47  +13  +15      983.0         
18:55 26.03 ЮВ  5
{8} 
16 км    10/5 1110 м
[средняя] 
+14.1  +3.9  50  +12  +13      983.0         
19:15 26.03 ЮВ  16 км    10/8 1230 м
[средняя] 
+13.8  +4.0  52  +12  +13      982.6         
19:35 26.03 ЮВ  16 км    8/8 1290 м
[средняя] 
+14.8  +4.1  49  +13  +14      982.3         
19:55 26.03 ЮВ  16 км    8/8 1350 м  +15.2  +4.1  47  +14  +14      982.0         
20:15 26.03 ЮВ  16 км    5/5 1350 м  +14.4  +3.9  49  +13  +14      981.7         
20:35 26.03 ЮВ  16 км    8/8 1410 м  +14.3  +4.1  50  +13  +14      981.7         
20:55 26.03 ЮВ  16 км    10/10 1470 м  +14.0  +4.1  51  +13  +13      981.7         
21:15 26.03 ЮВ  16 км    10/10 1470 м  +14.1  +4.1  51  +13  +13      981.3         

 

Местоположение метеостанции Nebraska City Municipal Airport: широта 40.6000 долгота -95.8500 высота над уровнем моря 354 м.

В архиве по умолчанию представлена погода в Небраска-Сити за последние 1-2 суток. Обновление информации о фактической погоде в базе происходит ежечасно! Архивные данные за месяц целиком и за предыдущие месяцы Вы можете получить, выбрав интересующий диапазон дат из раскрывающегося списка и нажав кнопку "Ввод!".

Внимание! Архив погоды МЕТАР в базе сайта хранится не более 60 дней. Нет смысла пытаться выбрать более раннюю дату.

Внимание! Время в таблицах - всемирное. Для получения местного времени необходимо прибавить поправку, которая в Небраска-Сити равна -6 ч.

Ветер - указаны скорость ветра в м/с и направление, откуда дует ветер: С - северный, СВ - северо-восточный, В - восточный, ЮВ - юго-восточный, Ю - южный, ЮЗ - юго-западный, З - западный, СЗ - северо-западный.
Видимость - горизонтальная дальность видимости в метрах или километрах. При видимости от 1 до 10 км при отсутствии осадков обычно наблюдается дымка, при ухудшении видимости до 1 км и менее - туман. В сухую погоду видимость может ухудшаться дымом, пылью или мглою.
Атмосферные явления - указаны явления, наблюдавшиеся в указанный момент времени.
Облачность - указаны через наклонную черту верхняя и нижняя облачность в баллах и высота нижней границы облаков в метрах. Внимание: облачность, как и прочие метеорологические величины в США измеряются автоматическими метеостанциями. Указанные значения в баллах носят условный характер и показывают процент времени, в течение которого, в среднем, лазерный луч высотомера отражался от облаков обратно.
T - Температура воздуха - температура, измеренная на высоте 2 м над землей.
Td - Температура точки росы - температура, при понижении до которой содержащийся в воздухе водяной пар достигнет насыщения.
f - Относительная влажность воздуха - влажноcть воздуха, измеренная на высоте 2 м над землей.
Te - Эффективная температура - температура, которую ощущает одетый по сезону человек в тени. Характеристика душности погоды. При расчете учитывается влияние влажности воздуха и скорости ветра на теплоощущения человека.
Tes - Эффективная температура на солнце - температура, которую ощущает человек, с поправкой на солнечный нагрев. Характеристика знойности погоды. Зависит от высоты солнца над горизонтом, облачности и скорости ветра. Ночью, в пасмурную погоду, а также при ветре 12 м/с и более поправка равна нулю.
P - Атмосферное давление - приведенное к уровню моря атмосферное давление.
Po - Атмосферное давление - измеренное на уровне метеостанции атмосферное давление.
Tmin - Минимальная температура - минимум температуры воздуха на высоте 2 м над землей.
Tmax - Максимальная температура - максимум температуры воздуха на высоте 2 м над землей.
R - Количество осадков - Количество выпавших осадков за 3 или 6 часов, мм.
SD - Снежный покров - Высота снежного покрова, см.